TimeCDT,TemperatureF,Dew PointF,Humidity,Sea Level PressureIn,VisibilityMPH,Wind Direction,Wind SpeedMPH,Gust SpeedMPH,PrecipitationIn,Events,Conditions,WindDirDegrees,DateUTC
12:53 AM,34.0,30.9,89,30.06,10.0,SSW,6.9,-,N/A,,Clear,200,2013-10-22 05:53:00
1:53 AM,35.1,32.0,89,30.05,10.0,SSW,6.9,-,N/A,,Clear,210,2013-10-22 06:53:00
2:53 AM,34.0,30.9,89,30.05,10.0,SSW,6.9,-,N/A,,Clear,200,2013-10-22 07:53:00
3:53 AM,35.1,32.0,89,30.03,10.0,SSW,8.1,-,N/A,,Clear,200,2013-10-22 08:53:00
4:53 AM,37.0,33.1,86,30.01,10.0,SSW,10.4,-,N/A,,Clear,200,2013-10-22 09:53:00
5:53 AM,39.0,34.0,82,30.02,10.0,SSW,9.2,-,N/A,,Unknown,200,2013-10-22 10:53:00
6:53 AM,41.0,35.1,79,30.01,10.0,South,9.2,-,N/A,,Overcast,190,2013-10-22 11:53:00
7:53 AM,41.0,35.1,79,30.00,10.0,South,10.4,-,N/A,,Overcast,190,2013-10-22 12:53:00
8:53 AM,44.1,36.0,73,29.99,10.0,SSW,11.5,-,N/A,,Overcast,200,2013-10-22 13:53:00
9:53 AM,46.9,37.0,68,29.97,10.0,South,10.4,-,N/A,,Overcast,190,2013-10-22 14:53:00
10:53 AM,48.9,39.0,69,29.95,10.0,SSW,11.5,-,N/A,,Overcast,200,2013-10-22 15:53:00
11:53 AM,52.0,39.0,61,29.92,10.0,SSW,12.7,-,N/A,,Overcast,200,2013-10-22 16:53:00
12:53 PM,57.0,41.0,55,29.88,10.0,SSW,15.0,24.2,N/A,,Overcast,210,2013-10-22 17:53:00
1:53 PM,57.0,39.9,53,29.86,10.0,SW,13.8,-,N/A,,Overcast,220,2013-10-22 18:53:00
2:53 PM,62.1,42.1,48,29.84,10.0,West,13.8,24.2,N/A,,Scattered Clouds,260,2013-10-22 19:53:00
3:53 PM,62.1,42.1,48,29.83,10.0,West,17.3,24.2,N/A,,Scattered Clouds,270,2013-10-22 20:53:00
4:53 PM,55.9,45.0,67,29.85,10.0,WNW,17.3,25.3,0.01,,Mostly Cloudy,290,2013-10-22 21:53:00
5:53 PM,55.9,37.0,49,29.88,10.0,WNW,19.6,25.3,N/A,,Mostly Cloudy,290,2013-10-22 22:53:00
6:53 PM,53.1,36.0,52,29.91,10.0,WNW,13.8,24.2,N/A,,Partly Cloudy,300,2013-10-22 23:53:00
7:53 PM,50.0,34.0,54,29.94,10.0,WNW,13.8,21.9,N/A,,Clear,300,2013-10-23 00:53:00
8:53 PM,46.9,41.0,80,29.97,10.0,NNW,13.8,21.9,0.00,Rain,Light Rain,330,2013-10-23 01:53:00
9:53 PM,45.0,39.0,80,29.99,10.0,NNW,10.4,-,0.00,,Mostly Cloudy,330,2013-10-23 02:53:00
10:53 PM,45.0,37.9,76,30.00,10.0,NNW,10.4,-,N/A,,Overcast,340,2013-10-23 03:53:00
11:21 PM,43.0,36.0,76,30.00,10.0,North,12.7,-,N/A,,Overcast,350,2013-10-23 04:21:00
11:53 PM,42.1,36.0,79,30.01,10.0,NNW,10.4,-,N/A,,Overcast,340,2013-10-23 04:53:00